Weather History for Bentonville, AR

Change the Weather History Date:

Saturday, December 10, 2011

  Actual Average Record
Temperature  
Mean Temperature 34 °F -  
Max Temperature 46 °F 48 °F 68 °F (1993)
Min Temperature 21 °F 27 °F 8 °F (1977)
Degree Days  
Heating Degree Days 32    
Moisture  
Dew Point 24 °F    
Average Humidity 76    
Maximum Humidity 100    
Minimum Humidity 43    
Precipitation  
Precipitation 0.00 in - - ()
Sea Level Pressure  
Sea Level Pressure 30.48 in    
Wind  
Wind Speed 2 mph (SSW)    
Max Wind Speed 8 mph    
Max Gust Speed -    
Visibility 6 miles    
Events      
Averages and records for this station are not official NWS values.
T = Trace of Precipitation, MM = Missing Value Source: NWS Daily Summary

Daily Weather History Graph

Daily Weather History Graph

Search for Another Location

Airport:

Trip Planner

Search our weather history database for the weather conditions in past years. The results will help you decide how hot, cold, wet, or windy it might be!

Date:

Astronomy

Dec. 10, 2011 Rise Set
Actual Time 7:17 AM CST 5:01 PM CST
Civil Twilight 6:48 AM CST 5:30 PM CST
Nautical Twilight 6:16 AM CST 6:02 PM CST
Astronomical Twilight 5:45 AM CST 6:33 PM CST
Moon 5:16 PM CST (12/10) 7:17 AM CST (12/10)
Length of Visible Light 10h 41m
Length of Day
9h 44m
Full, 100% of the Moon is Illuminated
Dec 10
Full
Dec 17
Last Quarter
Dec 24
New
Jan 1
First Quarter
Jan 9
Full

Hourly Weather History & Observations

Time (CST) Temp. Windchill Dew Point Humidity Pressure Visibility Wind Dir Wind Speed Gust Speed Precip Events Conditions
12:55 AM 24.8 °F 20.5 °F 23.0 °F 93% 30.47 in 3.0 mi North 3.5 mph - N/A   Clear
1:15 AM 24.8 °F - 23.0 °F 93% 30.47 in 3.0 mi Calm Calm - N/A   Clear
1:35 AM 23.0 °F - 21.2 °F 93% 30.47 in 4.0 mi Calm Calm - N/A   Clear
1:55 AM 23.0 °F - 21.2 °F 93% 30.48 in 3.0 mi Calm Calm - N/A   Clear
2:15 AM 23.0 °F - 21.2 °F 93% 30.47 in 4.0 mi Calm Calm - N/A   Clear
2:35 AM 23.0 °F - 21.2 °F 93% 30.48 in 4.0 mi Calm Calm - N/A   Clear
2:55 AM 24.8 °F - 21.2 °F 86% 30.48 in 3.0 mi Calm Calm - N/A   Clear
3:15 AM 24.8 °F 20.5 °F 21.2 °F 86% 30.49 in 4.0 mi North 3.5 mph - N/A   Clear
3:35 AM 23.0 °F 18.4 °F 19.4 °F 86% 30.48 in 3.0 mi NNE 3.5 mph - N/A   Clear
3:55 AM 24.8 °F 20.5 °F 21.2 °F 86% 30.48 in 4.0 mi ENE 3.5 mph - N/A   Clear
4:15 AM 21.2 °F - 19.4 °F 93% 30.48 in 4.0 mi Calm Calm - N/A   Clear
4:35 AM 23.0 °F - 21.2 °F 93% 30.48 in 4.0 mi Calm Calm - N/A   Clear
4:55 AM 21.2 °F - 19.4 °F 93% 30.49 in 4.0 mi Calm Calm - N/A   Clear
5:15 AM 21.2 °F - 19.4 °F 93% 30.49 in 4.0 mi Calm Calm - N/A   Clear
5:35 AM 21.2 °F - 19.4 °F 93% 30.50 in 3.0 mi Calm Calm - N/A   Clear
5:55 AM 21.2 °F - 17.6 °F 86% 30.50 in 3.0 mi Calm Calm - N/A   Clear
6:15 AM 21.2 °F - 19.4 °F 93% 30.51 in 5.0 mi Calm Calm - N/A   Partly Cloudy
6:35 AM 21.2 °F - 19.4 °F 93% 30.51 in 0.5 mi Calm Calm - N/A   Overcast
6:55 AM 21.2 °F - 19.4 °F 93% 30.52 in 0.2 mi Calm Calm - N/A   Overcast
7:15 AM 21.2 °F - 19.4 °F 93% 30.52 in 0.2 mi Calm Calm - N/A   Overcast
7:35 AM 21.2 °F - 19.4 °F 93% 30.52 in 0.2 mi Calm Calm - N/A   Overcast
7:55 AM 23.0 °F - 21.2 °F 93% 30.52 in 0.2 mi Calm Calm - N/A   Overcast
8:15 AM 26.6 °F 21.2 °F 24.8 °F 93% 30.53 in 0.2 mi ESE 4.6 mph - N/A   Overcast
8:35 AM 26.6 °F 22.6 °F 26.6 °F 100% 30.53 in 0.2 mi SSE 3.5 mph - N/A   Overcast
8:55 AM 28.4 °F 22.2 °F 26.6 °F 93% 30.54 in 0.2 mi SE 5.8 mph - N/A   Overcast
9:15 AM 30.2 °F 26.7 °F 28.4 °F 93% 30.54 in 1.8 mi SE 3.5 mph - N/A   Overcast
9:35 AM 30.2 °F 22.6 °F 30.2 °F 100% 30.55 in 5.0 mi SE 8.1 mph - N/A   Scattered Clouds
9:55 AM 32.0 °F 26.4 °F 30.2 °F 93% 30.55 in 8.0 mi SSE 5.8 mph - N/A   Clear
10:15 AM 33.8 °F 28.6 °F 30.2 °F 87% 30.55 in 10.0 mi SE 5.8 mph - N/A   Clear
10:35 AM 35.6 °F 30.7 °F 28.4 °F 75% 30.55 in 10.0 mi SSE 5.8 mph - N/A   Clear
11:15 AM 37.4 °F 34.9 °F 26.6 °F 65% 30.54 in 10.0 mi SSW 3.5 mph - N/A   Clear
11:55 AM 39.2 °F 33.6 °F 28.4 °F 65% 30.53 in 10.0 mi SSW 8.1 mph - N/A   Clear
12:15 PM 39.2 °F - 26.6 °F 61% 30.52 in 10.0 mi Calm Calm - N/A   Clear
12:35 PM 39.2 °F 37.0 °F 26.6 °F 61% 30.51 in 10.0 mi SSW 3.5 mph - N/A   Clear
12:55 PM 41.0 °F 37.1 °F 26.6 °F 57% 30.50 in 10.0 mi SW 5.8 mph - N/A   Clear
1:15 PM 42.8 °F 39.3 °F 26.6 °F 53% 30.49 in 10.0 mi WSW 5.8 mph - N/A   Clear
1:35 PM 42.8 °F - 26.6 °F 53% 30.48 in 10.0 mi Calm Calm - N/A   Clear
1:55 PM 42.8 °F 41.1 °F 24.8 °F 49% 30.47 in 10.0 mi WSW 3.5 mph - N/A   Clear
2:15 PM 42.8 °F 41.1 °F 24.8 °F 49% 30.47 in 10.0 mi WSW 3.5 mph - N/A   Clear
2:35 PM 44.6 °F 43.1 °F 24.8 °F 46% 30.46 in 10.0 mi SW 3.5 mph - N/A   Clear
2:55 PM 44.6 °F 43.1 °F 24.8 °F 46% 30.46 in 10.0 mi NW 3.5 mph - N/A   Clear
3:15 PM 46.4 °F 45.2 °F 24.8 °F 43% 30.46 in 10.0 mi West 3.5 mph - N/A   Clear
3:35 PM 46.4 °F - 24.8 °F 43% 30.45 in 10.0 mi Calm Calm - N/A   Clear
4:15 PM 44.6 °F 43.1 °F 26.6 °F 49% 30.45 in 10.0 mi West 3.5 mph - N/A   Clear
4:35 PM 44.6 °F 43.1 °F 26.6 °F 49% 30.45 in 10.0 mi West 3.5 mph - N/A   Clear
4:55 PM 42.8 °F - 24.8 °F 49% 30.44 in 10.0 mi Calm Calm - N/A   Clear
5:15 PM 39.2 °F - 24.8 °F 56% 30.44 in 10.0 mi Calm Calm - N/A   Clear
5:35 PM 39.2 °F - 24.8 °F 56% 30.44 in 10.0 mi Calm Calm - N/A   Clear
5:55 PM 37.4 °F - 24.8 °F 60% 30.44 in 10.0 mi Calm Calm - N/A   Clear
6:15 PM 37.4 °F - 24.8 °F 60% 30.44 in 10.0 mi Calm Calm - N/A   Clear
6:35 PM 35.6 °F - 24.8 °F 65% 30.44 in 10.0 mi Calm Calm - N/A   Clear
6:55 PM 35.6 °F - 24.8 °F 65% 30.44 in 10.0 mi Calm Calm - N/A   Clear
7:15 PM 33.8 °F - 24.8 °F 70% 30.44 in 10.0 mi Calm Calm - N/A   Clear
7:35 PM 35.6 °F - 24.8 °F 65% 30.44 in 10.0 mi Calm Calm - N/A   Clear
7:55 PM 32.0 °F - 24.8 °F 75% 30.44 in 10.0 mi Calm Calm - N/A   Clear
8:15 PM 30.2 °F - 24.8 °F 80% 30.44 in 10.0 mi Calm Calm - N/A   Clear
8:35 PM 32.0 °F - 24.8 °F 75% 30.44 in 10.0 mi Calm Calm - N/A   Clear
8:55 PM 32.0 °F 28.7 °F 24.8 °F 75% 30.44 in 10.0 mi South 3.5 mph - N/A   Clear
9:15 PM 30.2 °F 26.7 °F 23.0 °F 75% 30.44 in 10.0 mi South 3.5 mph - N/A   Clear
9:35 PM 32.0 °F 28.7 °F 24.8 °F 75% 30.45 in 10.0 mi SSW 3.5 mph - N/A   Clear
9:55 PM 30.2 °F - 24.8 °F 80% 30.44 in 10.0 mi Calm Calm - N/A   Clear
10:15 PM 30.2 °F - 23.0 °F 75% 30.45 in 10.0 mi Calm Calm - N/A   Clear
10:35 PM 30.2 °F - 24.8 °F 80% 30.45 in 10.0 mi Calm Calm - N/A   Clear
10:55 PM 30.2 °F - 24.8 °F 80% 30.45 in 10.0 mi Calm Calm - N/A   Clear
11:15 PM 28.4 °F - 23.0 °F 80% 30.45 in 10.0 mi Calm Calm - N/A   Clear
11:35 PM 28.4 °F - 24.8 °F 86% 30.45 in 10.0 mi Calm Calm - N/A   Clear
11:55 PM 28.4 °F 24.6 °F 24.8 °F 86% 30.45 in 10.0 mi South 3.5 mph - N/A   Clear